• In Hungary
  • List of Countries
  • For 7 days
  • Water Temperature
  • Satellite Maps
  • Weather Map
  • News
  • Weather Widgets
  • user-avatar
    Login

    Hourly Weather Pozarevac

    Today, 23 February, Friday

    Time Temperature Precipitation Wind Pressure Humidity
    00:00 +1°C° 0 mm 3 mps 753 mmHg 82%
    01:00 +1°C° 0 mm 3 mps 753 mmHg 82%
    02:00 +1°C° 0 mm 3 mps 753 mmHg 83%
    03:00 0°C° 0 mm 3 mps 753 mmHg 83%
    04:00 -1°C° 0 mm 4 mps 753 mmHg 83%
    05:00 -1°C° 0 mm 4 mps 753 mmHg 83%
    06:00 -1°C° 0 mm 4 mps 753 mmHg 83%
    07:00 -1°C° 0 mm 4 mps 753 mmHg 82%
    08:00 +1°C° 0 mm 4 mps 753 mmHg 79%
    09:00 +2°C° 0 mm 5 mps 753 mmHg 75%
    10:00 +3°C° 0 mm 5 mps 753 mmHg 72%
    11:00 +4°C° 0 mm 6 mps 753 mmHg 70%
    12:00 +4°C° 0 mm 6 mps 752 mmHg 68%
    13:00 +5°C° 0 mm 6 mps 752 mmHg 66%
    14:00 +5°C° 0 mm 6 mps 752 mmHg 67%
    15:00 +5°C° 0 mm 6 mps 752 mmHg 69%
    16:00 +5°C° 0 mm 5 mps 752 mmHg 70%
    17:00 +3°C° 0 mm 5 mps 752 mmHg 74%
    18:00 +3°C° 0 mm 4 mps 752 mmHg 77%
    19:00 +2°C° 0 mm 3 mps 752 mmHg 81%
    20:00 +2°C° 0 mm 3 mps 753 mmHg 81%
    21:00 +2°C° 0 mm 3 mps 753 mmHg 82%
    22:00 +3°C° 0 mm 2 mps 753 mmHg 82%
    23:00 +3°C° 0 mm 2 mps 753 mmHg 83%

    Tomorrow, 24 February, Saturday

    Time Temperature Precipitation Wind Pressure Humidity
    00:00 +3°C° 0 mm 2 mps 753 mmHg 83%
    01:00 +3°C° 0 mm 2 mps 753 mmHg 83%
    02:00 +3°C° 0 mm 2 mps 753 mmHg 85%
    03:00 +3°C° 0 mm 1 mps 752 mmHg 86%
    04:00 +3°C° 0 mm 1 mps 752 mmHg 88%
    05:00 +2°C° 0 mm 2 mps 752 mmHg 88%
    06:00 +2°C° 0 mm 2 mps 752 mmHg 88%
    07:00 +2°C° 0 mm 2 mps 752 mmHg 88%
    08:00 +2°C° 0 mm 2 mps 752 mmHg 86%
    09:00 +2°C° 0 mm 3 mps 752 mmHg 83%
    10:00 +2°C° 0 mm 3 mps 752 mmHg 81%
    11:00 +2°C° 0.1 mm 3 mps 752 mmHg 78%
    12:00 +3°C° 0.1 mm 4 mps 752 mmHg 76%
    13:00 +3°C° 0.1 mm 4 mps 752 mmHg 74%
    14:00 +1°C° 0 mm 4 mps 752 mmHg 69%
    15:00 +1°C° 0 mm 4 mps 752 mmHg 65%
    16:00 +1°C° 0 mm 4 mps 752 mmHg 61%
    17:00 0°C° 0 mm 4 mps 752 mmHg 62%
    18:00 0°C° 0 mm 4 mps 752 mmHg 62%
    19:00 -1°C° 0 mm 4 mps 753 mmHg 63%
    20:00 -2°C° 0 mm 4 mps 753 mmHg 63%
    21:00 -2°C° 0 mm 4 mps 754 mmHg 63%
    22:00 -3°C° 0 mm 4 mps 754 mmHg 63%
    23:00 -4°C° 0 mm 4 mps 754 mmHg 62%

    Day after tomorrow, 25 February, Sunday

    Time Temperature Precipitation Wind Pressure Humidity
    00:00 -4°C° 0 mm 4 mps 755 mmHg 62%
    01:00 -5°C° 0 mm 4 mps 755 mmHg 62%
    02:00 -5°C° 0 mm 4 mps 755 mmHg 61%
    03:00 -7°C° 0 mm 4 mps 755 mmHg 60%
    04:00 -7°C° 0 mm 4 mps 755 mmHg 59%
    05:00 -7°C° 0 mm 4 mps 756 mmHg 58%
    06:00 -7°C° 0 mm 4 mps 756 mmHg 57%
    07:00 -8°C° 0 mm 4 mps 756 mmHg 56%
    08:00 -7°C° 0 mm 4 mps 756 mmHg 53%
    09:00 -5°C° 0 mm 4 mps 756 mmHg 49%
    10:00 -4°C° 0 mm 4 mps 756 mmHg 46%
    11:00 -4°C° 0 mm 4 mps 756 mmHg 44%
    12:00 -3°C° 0 mm 4 mps 756 mmHg 42%
    13:00 -1°C° 0 mm 3 mps 756 mmHg 40%
    14:00 -2°C° 0 mm 3 mps 756 mmHg 41%
    15:00 -2°C° 0 mm 3 mps 756 mmHg 42%
    16:00 -2°C° 0 mm 3 mps 755 mmHg 43%
    17:00 -2°C° 0 mm 2 mps 755 mmHg 46%
    18:00 -2°C° 0 mm 2 mps 756 mmHg 49%
    19:00 -3°C° 0 mm 2 mps 756 mmHg 51%
    20:00 -1°C° 0.1 mm 1 mps 756 mmHg 56%
    21:00 -1°C° 0.1 mm 1 mps 756 mmHg 60%
    22:00 -1°C° 0.1 mm 1 mps 756 mmHg 64%
    23:00 -4°C° 0.2 mm 2 mps 755 mmHg 70%

    26 February, Monday

    Time Temperature Precipitation Wind Pressure Humidity
    00:00 -5°C° 0.2 mm 3 mps 755 mmHg 75%
    01:00 -5°C° 0.2 mm 3 mps 755 mmHg 81%
    02:00 -5°C° 0.2 mm 4 mps 754 mmHg 79%
    03:00 -7°C° 0.2 mm 5 mps 754 mmHg 76%
    04:00 -8°C° 0.2 mm 6 mps 754 mmHg 74%
    05:00 -8°C° 0.2 mm 6 mps 753 mmHg 75%
    06:00 -9°C° 0.2 mm 7 mps 753 mmHg 76%
    07:00 -9°C° 0.2 mm 7 mps 752 mmHg 76%
    08:00 -9°C° 0.5 mm 7 mps 752 mmHg 78%
    09:00 -9°C° 0.5 mm 7 mps 752 mmHg 79%
    10:00 -10°C° 0.5 mm 8 mps 752 mmHg 81%
    11:00 -10°C° 0.6 mm 8 mps 751 mmHg 81%
    12:00 -9°C° 0.6 mm 7 mps 751 mmHg 82%
    13:00 -9°C° 0.6 mm 7 mps 750 mmHg 82%
    14:00 -9°C° 0.7 mm 7 mps 750 mmHg 84%
    15:00 -9°C° 0.7 mm 7 mps 750 mmHg 86%
    16:00 -10°C° 0.7 mm 6 mps 750 mmHg 88%
    17:00 -10°C° 0.5 mm 6 mps 750 mmHg 88%
    18:00 -10°C° 0.5 mm 6 mps 750 mmHg 88%
    19:00 -10°C° 0.5 mm 6 mps 750 mmHg 88%
    20:00 -10°C° 0.4 mm 5 mps 750 mmHg 88%
    21:00 -10°C° 0.4 mm 5 mps 750 mmHg 88%
    22:00 -10°C° 0.4 mm 5 mps 750 mmHg 88%
    23:00 -10°C° 0.3 mm 5 mps 750 mmHg 88%

    27 February, Tuesday

    Time Temperature Precipitation Wind Pressure Humidity
    00:00 -9°C° 0.3 mm 4 mps 750 mmHg 88%
    01:00 -9°C° 0.3 mm 4 mps 750 mmHg 88%
    02:00 -10°C° 0.3 mm 4 mps 749 mmHg 89%
    03:00 -10°C° 0.3 mm 4 mps 749 mmHg 89%
    04:00 -9°C° 0.3 mm 3 mps 749 mmHg 90%
    05:00 -9°C° 0.2 mm 3 mps 749 mmHg 90%
    06:00 -9°C° 0.2 mm 3 mps 749 mmHg 89%
    07:00 -9°C° 0.2 mm 3 mps 749 mmHg 89%
    08:00 -8°C° 0.2 mm 3 mps 749 mmHg 87%
    09:00 -7°C° 0.2 mm 3 mps 749 mmHg 85%
    10:00 -7°C° 0.2 mm 3 mps 749 mmHg 83%
    11:00 -6°C° 0.2 mm 3 mps 749 mmHg 82%
    12:00 -5°C° 0.2 mm 2 mps 749 mmHg 81%
    13:00 -4°C° 0.2 mm 2 mps 748 mmHg 81%
    14:00 -4°C° 0.1 mm 2 mps 749 mmHg 81%
    15:00 -4°C° 0.1 mm 2 mps 749 mmHg 82%
    16:00 -4°C° 0.1 mm 2 mps 749 mmHg 83%
    17:00 -5°C° 0.1 mm 2 mps 750 mmHg 85%
    18:00 -6°C° 0.1 mm 2 mps 750 mmHg 88%
    19:00 -6°C° 0.1 mm 1 mps 751 mmHg 91%
    20:00 -7°C° 0 mm 2 mps 751 mmHg 91%
    21:00 -7°C° 0 mm 2 mps 751 mmHg 92%
    22:00 -8°C° 0 mm 2 mps 752 mmHg 92%
    23:00 -8°C° 0 mm 2 mps 752 mmHg 93%

    28 February, Wednesday

    Time Temperature Precipitation Wind Pressure Humidity
    00:00 -8°C° 0 mm 2 mps 752 mmHg 93%
    01:00 -8°C° 0 mm 2 mps 753 mmHg 94%
    02:00 -8°C° 0 mm 2 mps 753 mmHg 94%
    03:00 -8°C° 0 mm 1 mps 753 mmHg 94%
    04:00 -8°C° 0 mm 1 mps 753 mmHg 94%
    05:00 -8°C° 0 mm 1 mps 753 mmHg 94%
    06:00 -8°C° 0 mm 1 mps 753 mmHg 94%
    07:00 -8°C° 0 mm 1 mps 754 mmHg 94%
    08:00 -7°C° 0 mm 1 mps 754 mmHg 91%
    09:00 -6°C° 0 mm 1 mps 754 mmHg 88%
    10:00 -6°C° 0 mm 2 mps 754 mmHg 86%
    11:00 -5°C° 0 mm 2 mps 754 mmHg 83%
    12:00 -5°C° 0 mm 2 mps 754 mmHg 81%
    13:00 -4°C° 0 mm 2 mps 755 mmHg 79%
    14:00 -2°C° 0 mm 1 mps 755 mmHg 79%
    15:00 -2°C° 0 mm 1 mps 755 mmHg 79%
    16:00 -2°C° 0 mm 1 mps 755 mmHg 79%
    17:00 -4°C° 0 mm 1 mps 755 mmHg 82%
    18:00 -6°C° 0 mm 1 mps 755 mmHg 85%
    19:00 -8°C° 0 mm 0 mps 756 mmHg 88%
    20:00 -8°C° 0 mm 1 mps 756 mmHg 88%
    21:00 -8°C° 0 mm 1 mps 757 mmHg 88%
    22:00 -9°C° 0 mm 1 mps 757 mmHg 88%
    23:00 -9°C° 0 mm 1 mps 757 mmHg 87%
    Show more